User: anonymous   Login
Location: San Vito
(41.8833°N, 12.9833°E)
Time: 22:28:59
(UTC+00:00)
Language:

Meteor 1-31 Rocket - Orbit

View from above orbital plane
View from above orbital plane
View from above satellite
View from above satellite

Ground track
Ground track

The orbit data is extracted from the following two-line orbital elements,

1 12586U 81065B   20023.57413884 +.00000226 +00000-0 +17578-4 0  9991
2 12586 097.6055 006.9962 0018885 173.5400 186.6077 15.10651481095795
Epoch (UTC): 23 January 2020 13:46:45
Eccentricity: 0.0018885
inclination: 97.6055°
perigee height: 521 km
apogee height: 547 km
right ascension of ascending node: 6.9962°
argument of perigee: 173.5400°
revolutions per day: 15.10651481
mean anomaly at epoch: 186.6077°
orbit number at epoch: 9579

The dashed part of the orbit path shows where the satellite is in the earth's shadow,  

DLR